Regional Weather Roundup
Issued by NWS

Home | Current Version | Previous Version | Text Only | Print | Product List | Glossary Off
Versions: 1 2 3 4 5 6 7 8 9 10 11 12 13 14 15 16 17 18 19 20 21 22 23 24 25 26 27 28 29 30 31 32 33 34 35 36 37 38 39 40 41 42 43 44 45 46 47 48 49 50

000
ASUS44 KMEG 212110
RWRTN
TENNESSEE HOURLY STATE WEATHER ROUNDUP
NATIONAL WEATHER SERVICE MEMPHIS TN
300 PM CST SUN DEC 21 2014

TNZ002-004-019-021-049-052-054-088>092-212200-
WEST TENNESSEE

CITY           SKY/WX    TMP DP  RH WIND       PRES   REMARKS
MEMPHIS INTL   MOSUNNY   56  31  38 CALM      30.04F
NWS MEMPHIS      N/A     55 N/A N/A MISG        N/A
JACKSON        SUNNY     54  30  40 E3        30.05F
DYERSBURG      SUNNY     52  27  37 SE5       30.07F
UNION CITY     SUNNY     48  34  57 SE6       30.06F
PARIS          SUNNY     48  30  49 CALM      30.07S
HUNTINGDON     SUNNY     50  26  39 CALM      30.06F
LEXINGTON      SUNNY     54  30  40 S5        30.05S
SAVANNAH       MOSUNNY   54  37  54 S8        30.05F
$$

TNZ008-025-027-028-033-062-065-066-212200-
NORTH MIDDLE TENNESSEE

CITY           SKY/WX    TMP DP  RH WIND       PRES   REMARKS
NASHVILLE      MOSUNNY   53  36  52 SE10      30.08F
CLARKSVILLE    MOSUNNY   50  30  46 E6        30.08F
SMYRNA         PTSUNNY   52  37  56 S7        30.09F
COOKEVILLE     CLOUDY    52  37  58 S9        30.09S
CROSSVILLE     CLOUDY    48  35  60 S5        30.10S
$$

TNZ061-075-076-078-094-096-097-212200-
SOUTH MIDDLE TENNESSEE

CITY           SKY/WX    TMP DP  RH WIND       PRES   REMARKS
FAYETTEVILLE   CLOUDY    52  37  58 MISG      30.07S
TULLAHOMA      PTSUNNY   52  37  58 SE5       30.07F
WINCHESTER     CLOUDY    52  39  62 S6        30.08F
MCMINNVILLE    CLOUDY    52  39  62 CALM      30.08F
COLUMBIA       CLOUDY    52  41  66 S6        30.05S
SHELBYVILLE    CLOUDY    54  41  62 SE7       30.08F
$$

TNZ017-018-042-046-047-212200-
NORTHEAST TENNESSEE

CITY           SKY/WX    TMP DP  RH WIND       PRES   REMARKS
TRI CITIES     MOSUNNY   51  35  54 NE5       30.12F
ELIZABETHTON   CLEAR     50  36  57 W6        30.11F
$$

TNZ012-013-036-069-073-074-212200-
CENTRAL EAST TENNESSEE

CITY           SKY/WX    TMP DP  RH WIND       PRES   REMARKS
KNOXVILLE      MOSUNNY   52  37  56 NW5       30.09F
OAK RIDGE      CLOUDY    50  33  52 CALM      30.12F
GATLINBURG     CLEAR     52  36  54 NE3       30.09F
MORRISTOWN     CLEAR     50  36  57 CALM      30.12S
$$

TNZ083-085-099-212200-
SOUTHEAST TENNESSEE

CITY           SKY/WX    TMP DP  RH WIND       PRES   REMARKS
CHATTANOOGA    CLOUDY    48  37  65 N5        30.12S
$$

SKY/WX REPORTED AS FAIR MEANS FEW OR NO CLOUDS BELOW
12 THOUSAND FEET.




USA.gov is the U.S. government's official web portal to all federal, state and local government web resources and services.